Погода в Абхе

Саудовская Аравия     18°17′32″N   42°46′04″E
темп.,
°C
ветер,
м/с
пор.,
м/с
влажн.,
%
обл.,
%
осадки,
мм/ч
давл.,
гПа
погр.,
м
13 мая, чт
чт1300:00+21ю225785 0.0 1014141
03:00+20с01615 0.0 101311
06:00+19всв11565 0.0 101411
09:00+24ссв452038 0.0 10141487
12:00+26св221458 0.0 10123147
15:00+28юз43188 0.0 10093484
18:00+25юз65295 0.0 10101220
21:00+23юз223770 0.0 1013328
14 мая, пт
пт1400:00+22с223867 0.0 101342
03:00+21с223831 0.0 101218
06:00+20с22395 0.0 101312
09:00+25ссв44265 0.0 10131421
12:00+27всв112097 0.0 10113315
15:00+25зюз643493 0.1 10102717
18:00+25юз13316 0.1 10101992
21:00+23зюз34454 0.1 1012137
15 мая, сб
сб1500:00+21всв35447 0.1 1013119
03:00+20ссв114472 0.2 101111
06:00+20всв11438 0.1 101211
09:00+25ссв112690 0.1 10121341
12:00+26ююв23247 0.0 10102544
15:00+27юз852612 0.0 10082479
18:00+25зюз66240 0.0 10091668
21:00+22ююв33465 0.0 1012374
16 мая, вс
вс1600:00+21юв11471 0.0 101221
03:00+20ююз11470 0.0 101011
06:00+20ююз22430 0.0 101114
09:00+25юз23220 0.0 10111055
12:00+27ююз66215 0.0 10093310
15:00+27юз76204 0.0 10082748
18:00+25зюз66200 0.0 10091160
21:00+23юз34324 0.0 1011191
17 мая, пн
пн1700:00+21ю223847 0.0 101230
03:00+20ю12374 0.0 101111
06:00+19юв01320 0.0 101311
09:00+24з2290 0.0 1013969
12:00+27юз45100 0.0 10113105
15:00+28юз971228 0.0 10102984
18:00+25зюз661511 0.0 10111633
21:00+23зюз332621 0.0 1013124